Pittsfield, IL

3:14 AM CST on February 06, 2016 (GMT -0600)
Pittsfield Penstone Municipal

Weather History for KPPQ - December, 2012

Change the Weather History Date:

Friday, December 28, 2012

  Actual Average (KUIN) Record (KUIN)
Temperature  
Mean Temperature 31 °F 27 °F  
Max Temperature 34 °F 35 °F 70 °F (1984)
Min Temperature 28 °F 19 °F -20 °F (1924)
Degree Days  
Heating Degree Days 34 38  
Month to date heating degree days 977  
Since 1 July heating degree days 2077  
Cooling Degree Days 0 0  
Month to date cooling degree days 0  
Year to date cooling degree days 1094  
Moisture  
Dew Point 28 °F    
Average Humidity 87    
Maximum Humidity 92    
Minimum Humidity 79    
Precipitation  
Precipitation 0.00 in 0.06 in 1.08 in (2015)
Month to date precipitation 2.08  
Year to date precipitation 37.16  
Sea Level Pressure  
Sea Level Pressure 29.97 in    
Wind  
Wind Speed 5 mph (SE)    
Max Wind Speed 9 mph    
Max Gust Speed -    
Visibility 8 miles    
Events      
T = Trace of Precipitation, MM = Missing Value Source: NWS Daily Summary

Daily Weather History Graph

Daily Weather History Graph

Search for Another Location

Airport or City:

Trip Planner

Search our weather history database for the weather conditions in past years. The results will help you decide how hot, cold, wet, or windy it might be!

Date:

Astronomy

Dec. 28, 2012 Rise Set
Actual Time 7:23 AM CST 4:46 PM CST
Civil Twilight 6:52 AM CST 5:17 PM CST
Nautical Twilight 6:19 AM CST 5:51 PM CST
Astronomical Twilight 5:46 AM CST 6:23 PM CST
Moon 5:23 PM CST (12/28) 7:17 AM CST (12/28)
Length of Visible Light 10h 24m
Length of Day
9h 23m
Full, 100% of the Moon is Illuminated
Dec 28
Full
Jan 4
Last Quarter
Jan 11
New
Jan 18
First Quarter
Jan 26
Full

Hourly Weather History & Observations

Time (CST) Temp. Windchill Dew Point Humidity Pressure Visibility Wind Dir Wind Speed Gust Speed Precip Events Conditions
12:15 AM 28.4 °F 23.3 °F 24.6 °F 86% 30.06 in 10.0 mi East 4.6 mph - N/A   Overcast
12:35 AM 28.4 °F 22.2 °F 24.8 °F 86% 30.06 in 10.0 mi East 5.8 mph - N/A   Overcast
12:55 AM 28.4 °F 22.2 °F 24.8 °F 86% 30.05 in 10.0 mi East 5.8 mph - N/A   Overcast
1:15 AM 28.4 °F 22.2 °F 24.8 °F 86% 30.04 in 10.0 mi East 5.8 mph - N/A   Overcast
1:35 AM 28.6 °F 21.5 °F 25.3 °F 88% 30.04 in 10.0 mi East 6.9 mph - N/A   Scattered Clouds
1:55 AM 28.8 °F 21.7 °F 25.5 °F 88% 30.04 in 10.0 mi ESE 6.9 mph - N/A   Scattered Clouds
2:15 AM 28.9 °F 21.1 °F 25.7 °F 88% 30.04 in 7.0 mi East 8.1 mph - N/A   Scattered Clouds
2:35 AM 28.9 °F 21.9 °F 25.7 °F 88% 30.03 in 7.0 mi ESE 6.9 mph - N/A   Clear
2:55 AM 29.3 °F 22.3 °F 26.1 °F 88% 30.04 in 7.0 mi ESE 6.9 mph - N/A   Scattered Clouds
3:15 AM 29.5 °F 21.8 °F 26.2 °F 88% 30.03 in 7.0 mi SE 8.1 mph - N/A   Mostly Cloudy
3:35 AM 29.3 °F 20.8 °F 26.2 °F 88% 30.02 in 7.0 mi SE 9.2 mph - N/A   Mostly Cloudy
3:55 AM 29.3 °F 23.2 °F 26.2 °F 88% 30.03 in 7.0 mi SE 5.8 mph - N/A   Mostly Cloudy
4:15 AM 29.7 °F 22.8 °F 26.4 °F 88% 30.03 in 7.0 mi SSE 6.9 mph - N/A   Overcast
4:35 AM 29.8 °F 23.0 °F 26.6 °F 88% 30.01 in 7.0 mi SSE 6.9 mph - N/A   Overcast
4:55 AM 29.5 °F 21.1 °F 26.4 °F 88% 29.99 in 7.0 mi ESE 9.2 mph - N/A   Overcast
5:15 AM 29.8 °F 22.2 °F 26.6 °F 88% 30.00 in 7.0 mi SSE 8.1 mph - N/A   Overcast
5:35 AM 29.8 °F 22.2 °F 26.6 °F 88% 30.00 in 7.0 mi SE 8.1 mph - N/A   Overcast
5:55 AM 29.8 °F 23.0 °F 27.0 °F 89% 30.00 in 7.0 mi SE 6.9 mph - N/A   Overcast
6:15 AM 29.8 °F 23.9 °F 27.0 °F 89% 30.00 in 7.0 mi SE 5.8 mph - N/A   Overcast
6:35 AM 30.0 °F 23.2 °F 27.0 °F 88% 30.01 in 7.0 mi SSE 6.9 mph - N/A   Overcast
6:55 AM 29.5 °F 21.8 °F 26.6 °F 89% 30.00 in 7.0 mi SE 8.1 mph - N/A   Overcast
7:15 AM 28.9 °F 22.8 °F 26.2 °F 90% 30.02 in 7.0 mi SSE 5.8 mph - N/A   Mostly Cloudy
7:35 AM 29.3 °F 24.3 °F 27.0 °F 91% 30.02 in 7.0 mi SSE 4.6 mph - N/A   Mostly Cloudy
7:55 AM 30.2 °F 24.3 °F 26.6 °F 86% 30.02 in 5.0 mi SSE 5.8 mph - N/A   Overcast
8:15 AM 30.4 °F 24.5 °F 27.5 °F 89% 30.01 in 5.0 mi SE 5.8 mph - N/A   Overcast
8:35 AM 30.9 °F 26.2 °F 27.7 °F 88% 30.01 in 7.0 mi SE 4.6 mph - N/A   Overcast
8:55 AM 31.1 °F 25.4 °F 27.9 °F 88% 30.01 in 7.0 mi SSE 5.8 mph - N/A   Overcast
9:15 AM 31.6 °F 25.1 °F 28.0 °F 87% 30.01 in 7.0 mi SSE 6.9 mph - N/A   Overcast
9:35 AM 32.0 °F 26.4 °F 28.4 °F 87% 30.01 in 7.0 mi SE 5.8 mph - N/A   Overcast
9:55 AM 32.0 °F 26.4 °F 28.4 °F 87% 30.01 in 7.0 mi SE 5.8 mph - N/A   Overcast
10:15 AM 32.0 °F 27.5 °F 28.9 °F 88% 30.00 in 10.0 mi SE 4.6 mph - N/A   Overcast
10:35 AM 32.0 °F 26.4 °F 28.6 °F 87% 29.99 in 7.0 mi ESE 5.8 mph - N/A   Overcast
10:55 AM 32.5 °F 27.1 °F 28.9 °F 87% 29.99 in 10.0 mi SSE 5.8 mph - N/A   Overcast
11:15 AM 32.5 °F 26.2 °F 28.8 °F 86% 29.98 in 10.0 mi SSE 6.9 mph - N/A   Overcast
11:35 AM 32.9 °F 27.5 °F 29.1 °F 86% 29.96 in 7.0 mi SE 5.8 mph - N/A   Overcast
11:55 AM 32.9 °F 28.5 °F 29.3 °F 87% 29.95 in 7.0 mi SE 4.6 mph - N/A   Overcast
12:15 PM 33.1 °F 28.7 °F 29.1 °F 85% 29.94 in 7.0 mi SSE 4.6 mph - N/A   Overcast
12:35 PM 32.9 °F - 29.1 °F 86% 29.93 in 7.0 mi Calm Calm - N/A   Overcast
12:55 PM 33.3 °F 30.2 °F 29.3 °F 85% 29.93 in 7.0 mi SSE 3.5 mph - N/A   Overcast
1:15 PM 33.6 °F 30.6 °F 29.1 °F 84% 29.94 in 7.0 mi South 3.5 mph - N/A   Overcast
1:35 PM 33.8 °F 29.6 °F 29.3 °F 84% 29.93 in 7.0 mi SSE 4.6 mph - N/A   Overcast
1:55 PM 33.8 °F 30.8 °F 29.1 °F 83% 29.93 in 10.0 mi SSE 3.5 mph - N/A   Overcast
2:15 PM 34.0 °F - 28.9 °F 82% 29.93 in 10.0 mi Calm Calm - N/A   Overcast
2:35 PM 34.2 °F - 28.6 °F 80% 29.92 in 10.0 mi Calm Calm - N/A   Overcast
2:55 PM 34.0 °F - 28.2 °F 79% 29.91 in 10.0 mi Calm Calm - N/A   Overcast
3:15 PM 34.0 °F - 28.4 °F 80% 29.91 in 10.0 mi Calm Calm - N/A   Overcast
3:35 PM 34.0 °F - 28.6 °F 81% 29.91 in 10.0 mi Calm Calm - N/A   Overcast
3:55 PM 33.8 °F - 28.9 °F 82% 29.92 in 10.0 mi Calm Calm - N/A   Overcast
4:15 PM 33.4 °F - 29.3 °F 85% 29.91 in 7.0 mi Calm Calm - N/A   Overcast
4:35 PM 33.3 °F - 29.5 °F 86% 29.92 in 7.0 mi Calm Calm - N/A   Overcast
4:55 PM 33.1 °F - 29.5 °F 87% 29.92 in 10.0 mi Calm Calm - N/A   Overcast
5:15 PM 32.9 °F 29.8 °F 29.7 °F 88% 29.92 in 10.0 mi NNW 3.5 mph - N/A   Overcast
5:35 PM 32.9 °F - 29.5 °F 87% 29.92 in 10.0 mi Calm Calm - N/A   Overcast
5:55 PM 32.9 °F - 29.3 °F 87% 29.92 in 10.0 mi Calm Calm - N/A   Overcast
6:15 PM 32.7 °F - 29.3 °F 87% 29.92 in 7.0 mi Calm Calm - N/A   Overcast
6:35 PM 32.4 °F - 29.3 °F 88% 29.92 in 7.0 mi Calm Calm - N/A   Overcast
6:55 PM 32.4 °F 29.1 °F 30.0 °F 91% 29.91 in 7.0 mi NNW 3.5 mph - N/A   Overcast
7:15 PM 32.5 °F - 29.5 °F 88% 29.92 in 7.0 mi Calm Calm - N/A   Overcast
7:35 PM 32.2 °F - 30.2 °F 92% 29.92 in 7.0 mi Calm Calm - N/A   Overcast
7:55 PM 32.2 °F 28.9 °F 30.0 °F 92% 29.92 in 7.0 mi NW 3.5 mph - N/A   Overcast
8:15 PM 32.4 °F 27.9 °F 29.3 °F 88% 29.92 in 7.0 mi WNW 4.6 mph - N/A   Overcast
8:35 PM 32.2 °F 26.7 °F 29.3 °F 89% 29.91 in 7.0 mi NNW 5.8 mph - N/A   Overcast
8:55 PM 32.0 °F 26.4 °F 29.1 °F 89% 29.91 in 7.0 mi NNW 5.8 mph - N/A   Overcast
9:15 PM 32.0 °F 26.4 °F 29.1 °F 89% 29.91 in 7.0 mi NNW 5.8 mph - N/A   Overcast
9:35 PM 32.0 °F 26.4 °F 28.9 °F 88% 29.91 in 7.0 mi NNW 5.8 mph - N/A   Overcast
9:55 PM 32.0 °F 25.6 °F 28.9 °F 88% 29.92 in 7.0 mi NNW 6.9 mph - N/A   Overcast
10:15 PM 32.0 °F 27.5 °F 29.1 °F 89% 29.93 in 7.0 mi NNW 4.6 mph - N/A   Overcast
10:35 PM 32.0 °F 26.4 °F 28.9 °F 88% 29.93 in 7.0 mi NNW 5.8 mph - N/A   Overcast
10:55 PM 32.0 °F 26.4 °F 28.9 °F 88% 29.93 in 5.0 mi NW 5.8 mph - N/A   Overcast
11:15 PM 31.8 °F 25.4 °F 28.6 °F 88% 29.93 in 5.0 mi NW 6.9 mph - N/A   Overcast
11:35 PM 31.6 °F 27.0 °F 28.2 °F 87% 29.93 in 5.0 mi NW 4.6 mph - N/A   Overcast
11:55 PM 31.6 °F 27.0 °F 28.2 °F 87% 29.93 in 5.0 mi WNW 4.6 mph - N/A   Overcast